owner,sensor,date,latitude,longitude,relative_humidity,qcFlag 
COMPS,ioos:station:USF.COMPS:C10:1,2019-03-01T00:05:00Z,27.1690,-82.9260,89.61,1111122 
COMPS,ioos:station:USF.COMPS:C10:1,2019-03-01T00:35:00Z,27.1690,-82.9260,88.61,1111122 
COMPS,ioos:station:USF.COMPS:C10:1,2019-03-01T01:05:00Z,27.1690,-82.9260,86.91,1111122 
COMPS,ioos:station:USF.COMPS:C10:1,2019-03-01T01:35:00Z,27.1690,-82.9260,85.69,1111122 
COMPS,ioos:station:USF.COMPS:C10:1,2019-03-01T02:05:00Z,27.1690,-82.9260,85.35,1111122 
COMPS,ioos:station:USF.COMPS:C10:1,2019-03-01T02:35:00Z,27.1690,-82.9260,85.04,1111122 
COMPS,ioos:station:USF.COMPS:C10:1,2019-03-01T03:05:00Z,27.1690,-82.9260,85.27,1111122 
COMPS,ioos:station:USF.COMPS:C10:1,2019-03-01T03:35:00Z,27.1690,-82.9260,84.45,1111122 
COMPS,ioos:station:USF.COMPS:C10:1,2019-03-01T04:05:00Z,27.1690,-82.9260,84.46,1111122 
COMPS,ioos:station:USF.COMPS:C10:1,2019-03-01T04:35:00Z,27.1690,-82.9260,84.57,1111122 
COMPS,ioos:station:USF.COMPS:C10:1,2019-03-01T05:05:00Z,27.1690,-82.9260,84.43,1111122 
COMPS,ioos:station:USF.COMPS:C10:1,2019-03-01T05:35:00Z,27.1690,-82.9260,84.78,1111122 
COMPS,ioos:station:USF.COMPS:C10:1,2019-03-01T06:05:00Z,27.1690,-82.9260,83.91,1111122 
COMPS,ioos:station:USF.COMPS:C10:1,2019-03-01T06:35:00Z,27.1690,-82.9260,85.0,1111122 
COMPS,ioos:station:USF.COMPS:C10:1,2019-03-01T07:05:00Z,27.1690,-82.9260,86.73,1111122 
COMPS,ioos:station:USF.COMPS:C10:1,2019-03-01T07:35:00Z,27.1690,-82.9260,87.7,1111122 
COMPS,ioos:station:USF.COMPS:C10:1,2019-03-01T08:05:00Z,27.1690,-82.9260,88.32,1111122 
COMPS,ioos:station:USF.COMPS:C10:1,2019-03-01T08:35:00Z,27.1690,-82.9260,88.69,1111122 
COMPS,ioos:station:USF.COMPS:C10:1,2019-03-01T09:05:00Z,27.1690,-82.9260,88.48,1111122 
COMPS,ioos:station:USF.COMPS:C10:1,2019-03-01T09:35:00Z,27.1690,-82.9260,87.81,1111122 
COMPS,ioos:station:USF.COMPS:C10:1,2019-03-01T10:05:00Z,27.1690,-82.9260,87.71,1111122 
COMPS,ioos:station:USF.COMPS:C10:1,2019-03-01T10:35:00Z,27.1690,-82.9260,87.76,1111122 
COMPS,ioos:station:USF.COMPS:C10:1,2019-03-01T11:05:00Z,27.1690,-82.9260,88.17,1111122 
COMPS,ioos:station:USF.COMPS:C10:1,2019-03-01T11:35:00Z,27.1690,-82.9260,88.95,1111122 
COMPS,ioos:station:USF.COMPS:C10:1,2019-03-01T12:05:00Z,27.1690,-82.9260,90.59,1111122 
COMPS,ioos:station:USF.COMPS:C10:1,2019-03-01T12:35:00Z,27.1690,-82.9260,91.57,1111122 
COMPS,ioos:station:USF.COMPS:C10:1,2019-03-01T13:05:00Z,27.1690,-82.9260,92.46,1111122 
COMPS,ioos:station:USF.COMPS:C10:1,2019-03-01T13:35:00Z,27.1690,-82.9260,92.28,1111122 
COMPS,ioos:station:USF.COMPS:C10:1,2019-03-01T14:05:00Z,27.1690,-82.9260,89.31,1111122 
COMPS,ioos:station:USF.COMPS:C10:1,2019-03-01T14:35:00Z,27.1690,-82.9260,86.55,1111122 
COMPS,ioos:station:USF.COMPS:C10:1,2019-03-01T15:05:00Z,27.1690,-82.9260,83.89,1111122 
COMPS,ioos:station:USF.COMPS:C10:1,2019-03-01T15:35:00Z,27.1690,-82.9260,82.5,1111122 
COMPS,ioos:station:USF.COMPS:C10:1,2019-03-01T16:05:00Z,27.1690,-82.9260,82.99,1111122 
COMPS,ioos:station:USF.COMPS:C10:1,2019-03-01T16:35:00Z,27.1690,-82.9260,84.4,1111122 
COMPS,ioos:station:USF.COMPS:C10:1,2019-03-01T17:05:00Z,27.1690,-82.9260,84.83,1111122 
COMPS,ioos:station:USF.COMPS:C10:1,2019-03-01T17:35:00Z,27.1690,-82.9260,85.34,1111122 
COMPS,ioos:station:USF.COMPS:C10:1,2019-03-01T18:05:00Z,27.1690,-82.9260,85.39,1111122 
COMPS,ioos:station:USF.COMPS:C10:1,2019-03-01T18:35:00Z,27.1690,-82.9260,84.51,1111122 
COMPS,ioos:station:USF.COMPS:C10:1,2019-03-01T19:05:00Z,27.1690,-82.9260,86.02,1111122 
COMPS,ioos:station:USF.COMPS:C10:1,2019-03-01T19:35:00Z,27.1690,-82.9260,88.07,1111122 
COMPS,ioos:station:USF.COMPS:C10:1,2019-03-01T20:05:00Z,27.1690,-82.9260,88.36,1111122 
COMPS,ioos:station:USF.COMPS:C10:1,2019-03-01T20:35:00Z,27.1690,-82.9260,87.48,1111122 
COMPS,ioos:station:USF.COMPS:C10:1,2019-03-01T21:05:00Z,27.1690,-82.9260,87.88,1111122 
COMPS,ioos:station:USF.COMPS:C10:1,2019-03-01T21:35:00Z,27.1690,-82.9260,89.23,1111122 
COMPS,ioos:station:USF.COMPS:C10:1,2019-03-01T22:05:00Z,27.1690,-82.9260,89.48,1111122 
COMPS,ioos:station:USF.COMPS:C10:1,2019-03-01T22:35:00Z,27.1690,-82.9260,90.42,1111122 
COMPS,ioos:station:USF.COMPS:C10:1,2019-03-01T23:05:00Z,27.1690,-82.9260,92.17,1111122 
COMPS,ioos:station:USF.COMPS:C10:1,2019-03-01T23:35:00Z,27.1690,-82.9260,93.1,1111122 
COMPS,ioos:station:USF.COMPS:C10:1,2019-03-02T00:05:00Z,27.1690,-82.9260,93.78,1111122 
COMPS,ioos:station:USF.COMPS:C10:1,2019-03-02T00:35:00Z,27.1690,-82.9260,94.55,1111122 
COMPS,ioos:station:USF.COMPS:C10:1,2019-03-02T01:05:00Z,27.1690,-82.9260,95.25,1111122 
COMPS,ioos:station:USF.COMPS:C10:1,2019-03-02T01:35:00Z,27.1690,-82.9260,95.08,1111122 
COMPS,ioos:station:USF.COMPS:C10:1,2019-03-02T02:05:00Z,27.1690,-82.9260,94.96,1111122 
COMPS,ioos:station:USF.COMPS:C10:1,2019-03-02T02:35:00Z,27.1690,-82.9260,95.05,1111122 
COMPS,ioos:station:USF.COMPS:C10:1,2019-03-02T03:05:00Z,27.1690,-82.9260,95.24,1111122 
COMPS,ioos:station:USF.COMPS:C10:1,2019-03-02T03:35:00Z,27.1690,-82.9260,95.32,1111122 
COMPS,ioos:station:USF.COMPS:C10:1,2019-03-02T04:05:00Z,27.1690,-82.9260,95.3,1111122 
COMPS,ioos:station:USF.COMPS:C10:1,2019-03-02T04:35:00Z,27.1690,-82.9260,95.35,1111122 
COMPS,ioos:station:USF.COMPS:C10:1,2019-03-02T05:05:00Z,27.1690,-82.9260,95.44,1111122 
COMPS,ioos:station:USF.COMPS:C10:1,2019-03-02T05:35:00Z,27.1690,-82.9260,95.75,1111122 
COMPS,ioos:station:USF.COMPS:C10:1,2019-03-02T06:05:00Z,27.1690,-82.9260,95.69,1111122 
COMPS,ioos:station:USF.COMPS:C10:1,2019-03-02T06:35:00Z,27.1690,-82.9260,95.64,1111122 
COMPS,ioos:station:USF.COMPS:C10:1,2019-03-02T07:05:00Z,27.1690,-82.9260,95.72,1111122 
COMPS,ioos:station:USF.COMPS:C10:1,2019-03-02T07:35:00Z,27.1690,-82.9260,95.97,1111122 
COMPS,ioos:station:USF.COMPS:C10:1,2019-03-02T08:05:00Z,27.1690,-82.9260,96.12,1111122 
COMPS,ioos:station:USF.COMPS:C10:1,2019-03-02T08:35:00Z,27.1690,-82.9260,96.42,1111122 
COMPS,ioos:station:USF.COMPS:C10:1,2019-03-02T09:05:00Z,27.1690,-82.9260,96.75,1111122 
COMPS,ioos:station:USF.COMPS:C10:1,2019-03-02T09:35:00Z,27.1690,-82.9260,96.9,1111122 
COMPS,ioos:station:USF.COMPS:C10:1,2019-03-02T10:05:00Z,27.1690,-82.9260,97.01,1111122 
COMPS,ioos:station:USF.COMPS:C10:1,2019-03-02T10:35:00Z,27.1690,-82.9260,97.17,1111122 
COMPS,ioos:station:USF.COMPS:C10:1,2019-03-02T11:05:00Z,27.1690,-82.9260,98.02,1111122 
COMPS,ioos:station:USF.COMPS:C10:1,2019-03-02T11:35:00Z,27.1690,-82.9260,98.04,1111122 
COMPS,ioos:station:USF.COMPS:C10:1,2019-03-02T12:05:00Z,27.1690,-82.9260,97.9,1111122 
COMPS,ioos:station:USF.COMPS:C10:1,2019-03-02T12:35:00Z,27.1690,-82.9260,97.66,1111122 
COMPS,ioos:station:USF.COMPS:C10:1,2019-03-02T13:05:00Z,27.1690,-82.9260,97.38,1111122 
COMPS,ioos:station:USF.COMPS:C10:1,2019-03-02T13:35:00Z,27.1690,-82.9260,97.06,1111122 
COMPS,ioos:station:USF.COMPS:C10:1,2019-03-02T14:05:00Z,27.1690,-82.9260,96.19,1111122 
COMPS,ioos:station:USF.COMPS:C10:1,2019-03-02T14:35:00Z,27.1690,-82.9260,95.13,1111122 
COMPS,ioos:station:USF.COMPS:C10:1,2019-03-02T15:05:00Z,27.1690,-82.9260,93.85,1111122 
COMPS,ioos:station:USF.COMPS:C10:1,2019-03-02T15:35:00Z,27.1690,-82.9260,93.35,1111122 
COMPS,ioos:station:USF.COMPS:C10:1,2019-03-02T16:05:00Z,27.1690,-82.9260,94.54,1111122 
COMPS,ioos:station:USF.COMPS:C10:1,2019-03-02T16:35:00Z,27.1690,-82.9260,94.93,1111122 
COMPS,ioos:station:USF.COMPS:C10:1,2019-03-02T17:05:00Z,27.1690,-82.9260,95.29,1111122 
COMPS,ioos:station:USF.COMPS:C10:1,2019-03-02T17:35:00Z,27.1690,-82.9260,94.82,1111122 
COMPS,ioos:station:USF.COMPS:C10:1,2019-03-02T18:05:00Z,27.1690,-82.9260,94.03,1111122 
COMPS,ioos:station:USF.COMPS:C10:1,2019-03-02T18:35:00Z,27.1690,-82.9260,93.29,1111122 
COMPS,ioos:station:USF.COMPS:C10:1,2019-03-02T19:05:00Z,27.1690,-82.9260,92.51,1111122 
COMPS,ioos:station:USF.COMPS:C10:1,2019-03-02T19:35:00Z,27.1690,-82.9260,91.85,1111122 
COMPS,ioos:station:USF.COMPS:C10:1,2019-03-02T20:05:00Z,27.1690,-82.9260,91.86,1111122 
COMPS,ioos:station:USF.COMPS:C10:1,2019-03-02T20:35:00Z,27.1690,-82.9260,91.86,1111122 
COMPS,ioos:station:USF.COMPS:C10:1,2019-03-02T21:05:00Z,27.1690,-82.9260,90.48,1111122 
COMPS,ioos:station:USF.COMPS:C10:1,2019-03-02T21:35:00Z,27.1690,-82.9260,90.54,1111122 
COMPS,ioos:station:USF.COMPS:C10:1,2019-03-02T22:05:00Z,27.1690,-82.9260,88.78,1111122 
COMPS,ioos:station:USF.COMPS:C10:1,2019-03-02T22:35:00Z,27.1690,-82.9260,88.84,1111122 
COMPS,ioos:station:USF.COMPS:C10:1,2019-03-02T23:05:00Z,27.1690,-82.9260,90.27,1111122 
COMPS,ioos:station:USF.COMPS:C10:1,2019-03-02T23:35:00Z,27.1690,-82.9260,91.62,1111122 
COMPS,ioos:station:USF.COMPS:C10:1,2019-03-03T00:05:00Z,27.1690,-82.9260,93.0,1111122 
COMPS,ioos:station:USF.COMPS:C10:1,2019-03-03T00:35:00Z,27.1690,-82.9260,93.96,1111122 
COMPS,ioos:station:USF.COMPS:C10:1,2019-03-03T01:05:00Z,27.1690,-82.9260,94.84,1111122 
COMPS,ioos:station:USF.COMPS:C10:1,2019-03-03T01:35:00Z,27.1690,-82.9260,95.75,1111122 
COMPS,ioos:station:USF.COMPS:C10:1,2019-03-03T02:05:00Z,27.1690,-82.9260,96.44,1111122 
COMPS,ioos:station:USF.COMPS:C10:1,2019-03-03T02:35:00Z,27.1690,-82.9260,96.73,1111122 
COMPS,ioos:station:USF.COMPS:C10:1,2019-03-03T03:05:00Z,27.1690,-82.9260,97.09,1111122 
COMPS,ioos:station:USF.COMPS:C10:1,2019-03-03T03:35:00Z,27.1690,-82.9260,97.53,1111122 
COMPS,ioos:station:USF.COMPS:C10:1,2019-03-03T04:05:00Z,27.1690,-82.9260,97.65,1111122 
COMPS,ioos:station:USF.COMPS:C10:1,2019-03-03T04:35:00Z,27.1690,-82.9260,97.92,1111122 
COMPS,ioos:station:USF.COMPS:C10:1,2019-03-03T05:05:00Z,27.1690,-82.9260,98.05,1111122 
COMPS,ioos:station:USF.COMPS:C10:1,2019-03-03T05:35:00Z,27.1690,-82.9260,98.03,1111122 
COMPS,ioos:station:USF.COMPS:C10:1,2019-03-03T06:05:00Z,27.1690,-82.9260,98.13,1111122 
COMPS,ioos:station:USF.COMPS:C10:1,2019-03-03T06:35:00Z,27.1690,-82.9260,98.39,1111122 
COMPS,ioos:station:USF.COMPS:C10:1,2019-03-03T07:05:00Z,27.1690,-82.9260,98.68,1111122 
COMPS,ioos:station:USF.COMPS:C10:1,2019-03-03T07:35:00Z,27.1690,-82.9260,98.94,1111122 
COMPS,ioos:station:USF.COMPS:C10:1,2019-03-03T08:05:00Z,27.1690,-82.9260,98.94,1111122 
COMPS,ioos:station:USF.COMPS:C10:1,2019-03-03T08:35:00Z,27.1690,-82.9260,98.95,1111122 
COMPS,ioos:station:USF.COMPS:C10:1,2019-03-03T09:05:00Z,27.1690,-82.9260,99.06,1111122 
COMPS,ioos:station:USF.COMPS:C10:1,2019-03-03T09:35:00Z,27.1690,-82.9260,99.15,1111122 
COMPS,ioos:station:USF.COMPS:C10:1,2019-03-03T10:05:00Z,27.1690,-82.9260,99.22,1111122 
COMPS,ioos:station:USF.COMPS:C10:1,2019-03-03T10:35:00Z,27.1690,-82.9260,99.3,1111122 
COMPS,ioos:station:USF.COMPS:C10:1,2019-03-03T11:05:00Z,27.1690,-82.9260,99.37,1111122 
COMPS,ioos:station:USF.COMPS:C10:1,2019-03-03T11:35:00Z,27.1690,-82.9260,99.43,1111122 
COMPS,ioos:station:USF.COMPS:C10:1,2019-03-03T12:05:00Z,27.1690,-82.9260,99.56,1111122 
COMPS,ioos:station:USF.COMPS:C10:1,2019-03-03T12:35:00Z,27.1690,-82.9260,99.58,1111122 
COMPS,ioos:station:USF.COMPS:C10:1,2019-03-03T13:05:00Z,27.1690,-82.9260,99.67,1111122 
COMPS,ioos:station:USF.COMPS:C10:1,2019-03-03T13:35:00Z,27.1690,-82.9260,99.31,1111122 
COMPS,ioos:station:USF.COMPS:C10:1,2019-03-03T14:05:00Z,27.1690,-82.9260,98.89,1111122 
COMPS,ioos:station:USF.COMPS:C10:1,2019-03-03T14:35:00Z,27.1690,-82.9260,98.4,1111122 
COMPS,ioos:station:USF.COMPS:C10:1,2019-03-03T15:05:00Z,27.1690,-82.9260,98.32,1111122 
COMPS,ioos:station:USF.COMPS:C10:1,2019-03-03T15:35:00Z,27.1690,-82.9260,98.15,1111122 
COMPS,ioos:station:USF.COMPS:C10:1,2019-03-03T16:05:00Z,27.1690,-82.9260,98.23,1111122 
COMPS,ioos:station:USF.COMPS:C10:1,2019-03-03T16:35:00Z,27.1690,-82.9260,97.01,1111122 
COMPS,ioos:station:USF.COMPS:C10:1,2019-03-03T17:05:00Z,27.1690,-82.9260,96.21,1111122 
COMPS,ioos:station:USF.COMPS:C10:1,2019-03-03T17:35:00Z,27.1690,-82.9260,95.41,1111122 
COMPS,ioos:station:USF.COMPS:C10:1,2019-03-03T18:05:00Z,27.1690,-82.9260,94.73,1111122 
COMPS,ioos:station:USF.COMPS:C10:1,2019-03-03T18:35:00Z,27.1690,-82.9260,94.07,1111122 
COMPS,ioos:station:USF.COMPS:C10:1,2019-03-03T19:05:00Z,27.1690,-82.9260,93.51,1111122 
COMPS,ioos:station:USF.COMPS:C10:1,2019-03-03T19:35:00Z,27.1690,-82.9260,93.07,1111122 
COMPS,ioos:station:USF.COMPS:C10:1,2019-03-03T20:05:00Z,27.1690,-82.9260,93.05,1111122 
COMPS,ioos:station:USF.COMPS:C10:1,2019-03-03T20:35:00Z,27.1690,-82.9260,93.24,1111122 
COMPS,ioos:station:USF.COMPS:C10:1,2019-03-03T21:05:00Z,27.1690,-82.9260,93.1,1111122 
COMPS,ioos:station:USF.COMPS:C10:1,2019-03-03T21:35:00Z,27.1690,-82.9260,92.36,1111122 
COMPS,ioos:station:USF.COMPS:C10:1,2019-03-03T22:05:00Z,27.1690,-82.9260,91.81,1111122 
COMPS,ioos:station:USF.COMPS:C10:1,2019-03-03T22:35:00Z,27.1690,-82.9260,91.91,1111122 
COMPS,ioos:station:USF.COMPS:C10:1,2019-03-03T23:05:00Z,27.1690,-82.9260,92.98,1111122 
COMPS,ioos:station:USF.COMPS:C10:1,2019-03-03T23:35:00Z,27.1690,-82.9260,93.89,1111122 
COMPS,ioos:station:USF.COMPS:C10:1,2019-03-04T00:05:00Z,27.1690,-82.9260,94.88,1111122 
COMPS,ioos:station:USF.COMPS:C10:1,2019-03-04T00:35:00Z,27.1690,-82.9260,95.35,1111122 
COMPS,ioos:station:USF.COMPS:C10:1,2019-03-04T01:05:00Z,27.1690,-82.9260,95.57,1111122 
COMPS,ioos:station:USF.COMPS:C10:1,2019-03-04T01:35:00Z,27.1690,-82.9260,95.84,1111122 
COMPS,ioos:station:USF.COMPS:C10:1,2019-03-04T02:05:00Z,27.1690,-82.9260,96.11,1111122 
COMPS,ioos:station:USF.COMPS:C10:1,2019-03-04T02:35:00Z,27.1690,-82.9260,96.36,1111122 
COMPS,ioos:station:USF.COMPS:C10:1,2019-03-04T03:05:00Z,27.1690,-82.9260,96.54,1111122 
COMPS,ioos:station:USF.COMPS:C10:1,2019-03-04T03:35:00Z,27.1690,-82.9260,96.67,1111122 
COMPS,ioos:station:USF.COMPS:C10:1,2019-03-04T04:05:00Z,27.1690,-82.9260,96.74,1111122 
COMPS,ioos:station:USF.COMPS:C10:1,2019-03-04T04:35:00Z,27.1690,-82.9260,96.94,1111122 
COMPS,ioos:station:USF.COMPS:C10:1,2019-03-04T05:05:00Z,27.1690,-82.9260,96.86,1111122 
COMPS,ioos:station:USF.COMPS:C10:1,2019-03-04T05:35:00Z,27.1690,-82.9260,96.7,1111122 
COMPS,ioos:station:USF.COMPS:C10:1,2019-03-04T06:05:00Z,27.1690,-82.9260,96.72,1111122 
COMPS,ioos:station:USF.COMPS:C10:1,2019-03-04T06:35:00Z,27.1690,-82.9260,96.72,1111122 
COMPS,ioos:station:USF.COMPS:C10:1,2019-03-04T07:05:00Z,27.1690,-82.9260,96.72,1111122 
COMPS,ioos:station:USF.COMPS:C10:1,2019-03-04T07:35:00Z,27.1690,-82.9260,96.86,1111122 
COMPS,ioos:station:USF.COMPS:C10:1,2019-03-04T08:05:00Z,27.1690,-82.9260,96.95,1111122 
COMPS,ioos:station:USF.COMPS:C10:1,2019-03-04T08:35:00Z,27.1690,-82.9260,97.0,1111122 
COMPS,ioos:station:USF.COMPS:C10:1,2019-03-04T09:05:00Z,27.1690,-82.9260,97.06,1111122 
COMPS,ioos:station:USF.COMPS:C10:1,2019-03-04T09:35:00Z,27.1690,-82.9260,96.95,1111122 
COMPS,ioos:station:USF.COMPS:C10:1,2019-03-04T10:05:00Z,27.1690,-82.9260,96.98,1111122 
COMPS,ioos:station:USF.COMPS:C10:1,2019-03-04T10:35:00Z,27.1690,-82.9260,97.13,1111122 
COMPS,ioos:station:USF.COMPS:C10:1,2019-03-04T11:05:00Z,27.1690,-82.9260,97.5,1111122 
COMPS,ioos:station:USF.COMPS:C10:1,2019-03-04T11:35:00Z,27.1690,-82.9260,97.83,1111122 
COMPS,ioos:station:USF.COMPS:C10:1,2019-03-04T12:05:00Z,27.1690,-82.9260,98.09,1111122 
COMPS,ioos:station:USF.COMPS:C10:1,2019-03-04T12:35:00Z,27.1690,-82.9260,98.17,1111122 
COMPS,ioos:station:USF.COMPS:C10:1,2019-03-04T13:05:00Z,27.1690,-82.9260,98.12,1111122 
COMPS,ioos:station:USF.COMPS:C10:1,2019-03-04T13:35:00Z,27.1690,-82.9260,98.19,1111122 
COMPS,ioos:station:USF.COMPS:C10:1,2019-03-04T14:05:00Z,27.1690,-82.9260,98.18,1111122 
COMPS,ioos:station:USF.COMPS:C10:1,2019-03-04T14:35:00Z,27.1690,-82.9260,98.14,1111122 
COMPS,ioos:station:USF.COMPS:C10:1,2019-03-04T15:05:00Z,27.1690,-82.9260,98.1,1111122 
COMPS,ioos:station:USF.COMPS:C10:1,2019-03-04T15:35:00Z,27.1690,-82.9260,97.88,1111122 
COMPS,ioos:station:USF.COMPS:C10:1,2019-03-04T16:05:00Z,27.1690,-82.9260,97.41,1111122 
COMPS,ioos:station:USF.COMPS:C10:1,2019-03-04T16:35:00Z,27.1690,-82.9260,95.78,1111122 
COMPS,ioos:station:USF.COMPS:C10:1,2019-03-04T17:05:00Z,27.1690,-82.9260,94.86,1111122 
COMPS,ioos:station:USF.COMPS:C10:1,2019-03-04T17:35:00Z,27.1690,-82.9260,95.25,1111122 
COMPS,ioos:station:USF.COMPS:C10:1,2019-03-04T18:05:00Z,27.1690,-82.9260,94.39,1111122 
COMPS,ioos:station:USF.COMPS:C10:1,2019-03-04T18:35:00Z,27.1690,-82.9260,93.12,1111122 
COMPS,ioos:station:USF.COMPS:C10:1,2019-03-04T19:05:00Z,27.1690,-82.9260,92.53,1111122 
COMPS,ioos:station:USF.COMPS:C10:1,2019-03-04T19:35:00Z,27.1690,-82.9260,91.88,1111122 
COMPS,ioos:station:USF.COMPS:C10:1,2019-03-04T20:05:00Z,27.1690,-82.9260,91.31,1111122 
COMPS,ioos:station:USF.COMPS:C10:1,2019-03-04T20:35:00Z,27.1690,-82.9260,90.21,1111122 
COMPS,ioos:station:USF.COMPS:C10:1,2019-03-04T21:05:00Z,27.1690,-82.9260,89.8,1111122 
COMPS,ioos:station:USF.COMPS:C10:1,2019-03-04T21:35:00Z,27.1690,-82.9260,89.44,1111122 
COMPS,ioos:station:USF.COMPS:C10:1,2019-03-04T22:05:00Z,27.1690,-82.9260,89.31,1111122 
COMPS,ioos:station:USF.COMPS:C10:1,2019-03-04T22:35:00Z,27.1690,-82.9260,89.84,1111122 
COMPS,ioos:station:USF.COMPS:C10:1,2019-03-04T23:05:00Z,27.1690,-82.9260,89.62,1111122 
COMPS,ioos:station:USF.COMPS:C10:1,2019-03-04T23:35:00Z,27.1690,-82.9260,89.92,1111122 
COMPS,ioos:station:USF.COMPS:C10:1,2019-03-05T02:05:00Z,27.1690,-82.9260,91.0,1111122 
COMPS,ioos:station:USF.COMPS:C10:1,2019-03-05T02:35:00Z,27.1690,-82.9260,90.43,1111122 
COMPS,ioos:station:USF.COMPS:C10:1,2019-03-05T03:05:00Z,27.1690,-82.9260,90.55,1111122 
COMPS,ioos:station:USF.COMPS:C10:1,2019-03-05T03:35:00Z,27.1690,-82.9260,89.64,1111122 
COMPS,ioos:station:USF.COMPS:C10:1,2019-03-05T04:05:00Z,27.1690,-82.9260,89.48,1111122 
COMPS,ioos:station:USF.COMPS:C10:1,2019-03-05T04:35:00Z,27.1690,-82.9260,89.06,1111122 
COMPS,ioos:station:USF.COMPS:C10:1,2019-03-05T05:05:00Z,27.1690,-82.9260,88.92,1111122 
COMPS,ioos:station:USF.COMPS:C10:1,2019-03-05T05:35:00Z,27.1690,-82.9260,88.49,1111122 
COMPS,ioos:station:USF.COMPS:C10:1,2019-03-05T06:05:00Z,27.1690,-82.9260,87.89,1111122 
COMPS,ioos:station:USF.COMPS:C10:1,2019-03-05T06:35:00Z,27.1690,-82.9260,86.94,1111122 
COMPS,ioos:station:USF.COMPS:C10:1,2019-03-05T07:05:00Z,27.1690,-82.9260,87.07,1111122 
COMPS,ioos:station:USF.COMPS:C10:1,2019-03-05T07:35:00Z,27.1690,-82.9260,86.33,1111122 
COMPS,ioos:station:USF.COMPS:C10:1,2019-03-05T08:05:00Z,27.1690,-82.9260,85.61,1111122 
COMPS,ioos:station:USF.COMPS:C10:1,2019-03-05T08:35:00Z,27.1690,-82.9260,85.35,1111122 
COMPS,ioos:station:USF.COMPS:C10:1,2019-03-05T09:05:00Z,27.1690,-82.9260,84.29,1111122 
COMPS,ioos:station:USF.COMPS:C10:1,2019-03-05T09:35:00Z,27.1690,-82.9260,83.33,1111122 
COMPS,ioos:station:USF.COMPS:C10:1,2019-03-05T10:05:00Z,27.1690,-82.9260,82.57,1111122 
COMPS,ioos:station:USF.COMPS:C10:1,2019-03-05T10:35:00Z,27.1690,-82.9260,82.4,1111122 
COMPS,ioos:station:USF.COMPS:C10:1,2019-03-05T11:05:00Z,27.1690,-82.9260,81.29,1111122 
COMPS,ioos:station:USF.COMPS:C10:1,2019-03-05T11:35:00Z,27.1690,-82.9260,80.54,1111122 
COMPS,ioos:station:USF.COMPS:C10:1,2019-03-05T12:05:00Z,27.1690,-82.9260,80.52,1111122 
COMPS,ioos:station:USF.COMPS:C10:1,2019-03-05T12:35:00Z,27.1690,-82.9260,80.45,1111122 
COMPS,ioos:station:USF.COMPS:C10:1,2019-03-05T13:05:00Z,27.1690,-82.9260,81.75,1111122 
COMPS,ioos:station:USF.COMPS:C10:1,2019-03-05T13:35:00Z,27.1690,-82.9260,82.14,1111122 
COMPS,ioos:station:USF.COMPS:C10:1,2019-03-05T14:05:00Z,27.1690,-82.9260,83.3,1111122 
COMPS,ioos:station:USF.COMPS:C10:1,2019-03-05T14:35:00Z,27.1690,-82.9260,85.31,1111122 
COMPS,ioos:station:USF.COMPS:C10:1,2019-03-05T15:05:00Z,27.1690,-82.9260,89.26,1111122 
COMPS,ioos:station:USF.COMPS:C10:1,2019-03-05T15:35:00Z,27.1690,-82.9260,88.8,1111122 
COMPS,ioos:station:USF.COMPS:C10:1,2019-03-05T16:05:00Z,27.1690,-82.9260,87.15,1111122 
COMPS,ioos:station:USF.COMPS:C10:1,2019-03-05T16:35:00Z,27.1690,-82.9260,85.95,1111122 
COMPS,ioos:station:USF.COMPS:C10:1,2019-03-05T17:05:00Z,27.1690,-82.9260,85.94,1111122 
COMPS,ioos:station:USF.COMPS:C10:1,2019-03-05T17:35:00Z,27.1690,-82.9260,86.63,1111122 
COMPS,ioos:station:USF.COMPS:C10:1,2019-03-05T18:05:00Z,27.1690,-82.9260,87.02,1111122 
COMPS,ioos:station:USF.COMPS:C10:1,2019-03-05T18:35:00Z,27.1690,-82.9260,86.2,1111122 
COMPS,ioos:station:USF.COMPS:C10:1,2019-03-05T19:05:00Z,27.1690,-82.9260,85.32,1111122 
COMPS,ioos:station:USF.COMPS:C10:1,2019-03-05T19:35:00Z,27.1690,-82.9260,84.98,1111122 
COMPS,ioos:station:USF.COMPS:C10:1,2019-03-05T20:05:00Z,27.1690,-82.9260,84.84,1111122 
COMPS,ioos:station:USF.COMPS:C10:1,2019-03-05T20:35:00Z,27.1690,-82.9260,84.93,1111122 
COMPS,ioos:station:USF.COMPS:C10:1,2019-03-05T21:05:00Z,27.1690,-82.9260,84.55,1111122 
COMPS,ioos:station:USF.COMPS:C10:1,2019-03-05T21:35:00Z,27.1690,-82.9260,85.65,1111122 
COMPS,ioos:station:USF.COMPS:C10:1,2019-03-05T22:05:00Z,27.1690,-82.9260,82.77,1111122 
COMPS,ioos:station:USF.COMPS:C10:1,2019-03-05T22:35:00Z,27.1690,-82.9260,81.28,1111122 
COMPS,ioos:station:USF.COMPS:C10:1,2019-03-05T23:05:00Z,27.1690,-82.9260,78.87,1111122 
COMPS,ioos:station:USF.COMPS:C10:1,2019-03-05T23:35:00Z,27.1690,-82.9260,79.47,1111122 
COMPS,ioos:station:USF.COMPS:C10:1,2019-03-06T01:05:00Z,27.1690,-82.9260,77.83,1111122 
COMPS,ioos:station:USF.COMPS:C10:1,2019-03-06T01:35:00Z,27.1690,-82.9260,76.19,1111122 
COMPS,ioos:station:USF.COMPS:C10:1,2019-03-06T02:05:00Z,27.1690,-82.9260,76.04,1111122 
COMPS,ioos:station:USF.COMPS:C10:1,2019-03-06T04:05:00Z,27.1690,-82.9260,73.21,1111122 
COMPS,ioos:station:USF.COMPS:C10:1,2019-03-06T04:35:00Z,27.1690,-82.9260,68.98,1111122 
COMPS,ioos:station:USF.COMPS:C10:1,2019-03-06T05:05:00Z,27.1690,-82.9260,68.02,1111122 
COMPS,ioos:station:USF.COMPS:C10:1,2019-03-06T05:35:00Z,27.1690,-82.9260,65.3,1111122 
COMPS,ioos:station:USF.COMPS:C10:1,2019-03-06T10:05:00Z,27.1690,-82.9260,64.33,1111122 
COMPS,ioos:station:USF.COMPS:C10:1,2019-03-06T10:35:00Z,27.1690,-82.9260,67.19,1111122 
COMPS,ioos:station:USF.COMPS:C10:1,2019-03-06T11:05:00Z,27.1690,-82.9260,66.15,1111122 
COMPS,ioos:station:USF.COMPS:C10:1,2019-03-06T11:35:00Z,27.1690,-82.9260,68.57,1111122 
COMPS,ioos:station:USF.COMPS:C10:1,2019-03-06T12:05:00Z,27.1690,-82.9260,69.96,1111122 
COMPS,ioos:station:USF.COMPS:C10:1,2019-03-06T12:35:00Z,27.1690,-82.9260,69.72,1111122 
COMPS,ioos:station:USF.COMPS:C10:1,2019-03-06T13:05:00Z,27.1690,-82.9260,71.39,1111122 
COMPS,ioos:station:USF.COMPS:C10:1,2019-03-06T13:35:00Z,27.1690,-82.9260,72.01,1111122 
COMPS,ioos:station:USF.COMPS:C10:1,2019-03-06T14:05:00Z,27.1690,-82.9260,78.3,1111122 
COMPS,ioos:station:USF.COMPS:C10:1,2019-03-06T14:35:00Z,27.1690,-82.9260,70.97,1111122 
COMPS,ioos:station:USF.COMPS:C10:1,2019-03-06T16:05:00Z,27.1690,-82.9260,61.01,1111122 
COMPS,ioos:station:USF.COMPS:C10:1,2019-03-06T16:35:00Z,27.1690,-82.9260,55.77,1111122 
COMPS,ioos:station:USF.COMPS:C10:1,2019-03-06T18:05:00Z,27.1690,-82.9260,53.62,1111122 
COMPS,ioos:station:USF.COMPS:C10:1,2019-03-06T18:35:00Z,27.1690,-82.9260,55.93,1111122 
COMPS,ioos:station:USF.COMPS:C10:1,2019-03-06T19:05:00Z,27.1690,-82.9260,55.74,1111122 
COMPS,ioos:station:USF.COMPS:C10:1,2019-03-06T19:35:00Z,27.1690,-82.9260,52.26,1111122 
COMPS,ioos:station:USF.COMPS:C10:1,2019-03-06T20:05:00Z,27.1690,-82.9260,51.48,1111122 
COMPS,ioos:station:USF.COMPS:C10:1,2019-03-06T20:35:00Z,27.1690,-82.9260,54.15,1111122 
COMPS,ioos:station:USF.COMPS:C10:1,2019-03-06T21:05:00Z,27.1690,-82.9260,57.22,1111122 
COMPS,ioos:station:USF.COMPS:C10:1,2019-03-06T21:35:00Z,27.1690,-82.9260,56.62,1111122 
COMPS,ioos:station:USF.COMPS:C10:1,2019-03-06T22:05:00Z,27.1690,-82.9260,56.16,1111122 
COMPS,ioos:station:USF.COMPS:C10:1,2019-03-06T22:35:00Z,27.1690,-82.9260,53.22,1111122 
COMPS,ioos:station:USF.COMPS:C10:1,2019-03-07T00:05:00Z,27.1690,-82.9260,53.3,1111122 
COMPS,ioos:station:USF.COMPS:C10:1,2019-03-07T00:35:00Z,27.1690,-82.9260,54.89,1111122 
COMPS,ioos:station:USF.COMPS:C10:1,2019-03-07T06:05:00Z,27.1690,-82.9260,67.5,1111122 
COMPS,ioos:station:USF.COMPS:C10:1,2019-03-07T06:35:00Z,27.1690,-82.9260,73.57,1111122 
COMPS,ioos:station:USF.COMPS:C10:1,2019-03-07T07:05:00Z,27.1690,-82.9260,71.35,1111122 
COMPS,ioos:station:USF.COMPS:C10:1,2019-03-07T07:35:00Z,27.1690,-82.9260,69.84,1111122 
COMPS,ioos:station:USF.COMPS:C10:1,2019-03-07T08:05:00Z,27.1690,-82.9260,68.25,1111122 